This is the latest recevied weather packets stored in our database for station/object AD8BV. If no packets are shown the sender has not sent any weather packets the latest 1 day(s).
| Time | Temp. | Humidity | Pressure | Rain* | Wind** | Luminosity | Snow |
|---|---|---|---|---|---|---|---|
| 1778114006 | 10° C | 51% | 1014.6 hPa | 0 mm | - | 0 W/m² | - |
| 1778113701 | 10° C | 54% | 1014.5 hPa | 0 mm | - | 1 W/m² | - |
| 1778113095 | 10° C | 52% | 1014.4 hPa | 0 mm | - | 6 W/m² | - |
| 1778112488 | 10.56° C | 52% | 1014.4 hPa | 0 mm | - | 19 W/m² | - |
| 1778110663 | 11.11° C | 47% | 1014.3 hPa | 0 mm | - | 35 W/m² | - |
| 1778110359 | 11.11° C | 47% | 1014.4 hPa | 0 mm | - | 37 W/m² | - |
| 1778110056 | 11.11° C | 47% | 1014.3 hPa | 0 mm | - | 34 W/m² | - |
| 1778109448 | 11.11° C | 50% | 1014.2 hPa | 0 mm | - | 32 W/m² | - |
| 1778108843 | 11.11° C | 45% | 1014.1 hPa | 0 mm | - | 42 W/m² | - |
| 1778108540 | 11.11° C | 47% | 1014.2 hPa | 0 mm | - | 49 W/m² | - |
| 1778107327 | 11.67° C | 45% | 1014.3 hPa | 0 mm | - | 98 W/m² | - |
| 1778107023 | 12.22° C | 44% | 1014.1 hPa | 0 mm | - | 101 W/m² | - |
| 1778106719 | 12.22° C | 44% | 1014 hPa | 0 mm | - | 108 W/m² | - |
| 1778106416 | 12.22° C | 45% | 1014 hPa | 0 mm | - | 108 W/m² | - |
| 1778105810 | 11.67° C | 46% | 1014.1 hPa | 0 mm | - | 119 W/m² | - |
| 1778105204 | 11.67° C | 45% | 1014.1 hPa | 0 mm | - | 75 W/m² | - |
| 1778103686 | 11.67° C | 44% | 1014.1 hPa | 0 mm | - | 81 W/m² | - |
| 1778100956 | 12.78° C | 47% | 1013.8 hPa | 0 mm | - | 296 W/m² | - |
| 1778100651 | 12.78° C | 44% | 1013.6 hPa | 0 mm | - | 139 W/m² | - |
| 1778100046 | 12.22° C | 44% | 1013.9 hPa | 0 mm | - | 153 W/m² | - |
| 1778098834 | 12.22° C | 46% | 1013.9 hPa | 0 mm | - | 219 W/m² | - |
| 1778095803 | 12.78° C | 43% | 1014.2 hPa | 0 mm | - | 209 W/m² | - |
| 1778095500 | 12.78° C | 46% | 1014.1 hPa | 0 mm | - | 304 W/m² | - |
| 1778094893 | 12.78° C | 47% | 1014.5 hPa | 0 mm | - | 325 W/m² | - |
| 1778093680 | 12.78° C | 44% | 1014.2 hPa | 0 mm | - | 212 W/m² | - |
* Rain latest hour (hover to see other rain measurements)
** Current wind speed in m/s (hover to see current wind gust speed)